TimeCST,TemperatureF,Dew PointF,Humidity,Sea Level PressureIn,VisibilityMPH,Wind Direction,Wind SpeedMPH,Gust SpeedMPH,PrecipitationIn,Events,Conditions,WindDirDegrees,DateUTC
12:38 AM,33.8,30.2,87,30.10,3.0,NNW,12.7,-,0.00,Snow,Light Snow,340,2013-11-06 06:38:00
12:52 AM,33.1,30.9,92,30.14,7.0,North,15.0,-,0.00,,Overcast,350,2013-11-06 06:52:00
12:58 AM,33.8,30.2,87,30.10,8.0,North,15.0,-,N/A,,Overcast,360,2013-11-06 06:58:00
1:36 AM,33.8,30.2,87,30.11,10.0,NNW,12.7,-,N/A,,Overcast,340,2013-11-06 07:36:00
1:52 AM,33.1,30.9,92,30.13,10.0,NNW,15.0,-,N/A,,Overcast,330,2013-11-06 07:52:00
2:05 AM,33.8,30.2,87,30.11,8.0,NNW,11.5,-,N/A,,Overcast,330,2013-11-06 08:05:00
2:24 AM,33.8,30.2,87,30.12,9.0,NNW,10.4,-,N/A,,Overcast,330,2013-11-06 08:24:00
2:52 AM,33.1,30.9,92,30.15,10.0,NNW,12.7,-,N/A,,Overcast,330,2013-11-06 08:52:00
3:52 AM,33.1,30.9,92,30.14,10.0,NNW,12.7,-,N/A,,Overcast,340,2013-11-06 09:52:00
3:59 AM,33.8,30.2,87,30.11,10.0,NNW,11.5,-,N/A,,Overcast,340,2013-11-06 09:59:00
4:52 AM,33.1,30.9,92,30.17,10.0,NW,12.7,-,N/A,,Mostly Cloudy,320,2013-11-06 10:52:00
5:08 AM,32.0,30.2,93,30.14,10.0,NNW,13.8,-,N/A,,Overcast,330,2013-11-06 11:08:00
5:16 AM,33.8,30.2,87,30.14,10.0,NNW,13.8,-,N/A,,Overcast,330,2013-11-06 11:16:00
5:52 AM,33.1,30.0,89,30.19,10.0,NNW,12.7,-,N/A,,Overcast,330,2013-11-06 11:52:00
6:21 AM,33.8,30.2,87,30.15,10.0,NW,10.4,-,N/A,,Overcast,320,2013-11-06 12:21:00
6:52 AM,33.1,30.9,92,30.19,10.0,NW,10.4,-,N/A,,Overcast,320,2013-11-06 12:52:00
7:52 AM,33.1,30.0,89,30.21,10.0,WNW,11.5,-,N/A,,Overcast,300,2013-11-06 13:52:00
8:52 AM,34.0,30.9,89,30.24,10.0,WNW,9.2,-,N/A,,Overcast,300,2013-11-06 14:52:00
9:52 AM,35.1,30.9,85,30.25,10.0,WNW,6.9,-,N/A,,Overcast,300,2013-11-06 15:52:00
10:26 AM,35.6,30.2,81,30.22,10.0,WNW,11.5,-,N/A,,Overcast,290,2013-11-06 16:26:00
10:52 AM,36.0,30.9,82,30.27,10.0,WNW,9.2,-,N/A,,Overcast,300,2013-11-06 16:52:00
11:52 AM,36.0,30.9,82,30.26,10.0,West,8.1,-,N/A,,Overcast,280,2013-11-06 17:52:00
12:26 PM,37.4,32.0,81,30.22,10.0,West,8.1,-,N/A,,Overcast,280,2013-11-06 18:26:00
12:37 PM,37.4,30.2,75,30.21,10.0,WNW,6.9,-,N/A,,Overcast,290,2013-11-06 18:37:00
12:52 PM,37.9,32.0,79,30.25,10.0,NW,6.9,-,N/A,,Overcast,310,2013-11-06 18:52:00
1:52 PM,41.0,32.0,70,30.25,10.0,West,6.9,-,N/A,,Mostly Cloudy,280,2013-11-06 19:52:00
2:52 PM,41.0,32.0,70,30.24,10.0,WNW,9.2,-,N/A,,Clear,290,2013-11-06 20:52:00
3:52 PM,39.9,32.0,73,30.24,10.0,West,4.6,-,N/A,,Mostly Cloudy,280,2013-11-06 21:52:00
4:52 PM,39.0,32.0,76,30.24,10.0,NW,5.8,-,N/A,,Overcast,310,2013-11-06 22:52:00
5:30 PM,37.4,30.2,75,30.22,10.0,West,4.6,-,N/A,,Scattered Clouds,270,2013-11-06 23:30:00
5:52 PM,35.1,30.0,82,30.26,10.0,West,3.5,-,N/A,,Clear,280,2013-11-06 23:52:00
6:52 PM,33.1,30.0,89,30.26,10.0,Calm,Calm,-,N/A,,Clear,0,2013-11-07 00:52:00
7:52 PM,30.9,28.9,92,30.27,10.0,Calm,Calm,-,N/A,,Clear,0,2013-11-07 01:52:00
8:52 PM,30.0,28.9,96,30.27,10.0,West,3.5,-,N/A,,Clear,270,2013-11-07 02:52:00
9:52 PM,28.9,27.0,92,30.28,10.0,WSW,3.5,-,N/A,,Clear,240,2013-11-07 03:52:00
10:52 PM,28.9,27.0,92,30.28,10.0,SSW,4.6,-,N/A,,Clear,210,2013-11-07 04:52:00
11:52 PM,28.9,27.0,92,30.29,10.0,SW,3.5,-,N/A,,Clear,230,2013-11-07 05:52:00